Weather History for KAHN - January, 2013

Change the Weather History Date:

Thursday, January 31, 2013

  Actual Average Record
Temperature  
Mean Temperature 42 °F 45 °F  
Max Temperature 49 °F 55 °F 77 °F (1975)
Min Temperature 35 °F 34 °F 8 °F (1936)
Degree Days  
Heating Degree Days 23 20  
Month to date heating degree days 484 669  
Since 1 July heating degree days 1469 1757  
Moisture  
Dew Point 25 °F    
Average Humidity 52    
Maximum Humidity 70    
Minimum Humidity 34    
Precipitation  
Precipitation T in 0.15 in 1.55 in (1985)
Month to date precipitation 4.97 4.05  
Year to date precipitation 4.97 4.05  
Snow  
Snow 0.00 in 0.00 in 0.00 in (2002)
Month to date snowfall 0.0 1.4  
Since 1 July snowfall 0.0 1.5  
Snow Depth -    
Sea Level Pressure  
Sea Level Pressure 30.03 in    
Wind  
Wind Speed 12 mph (West)    
Max Wind Speed 28 mph    
Max Gust Speed 43 mph    
Visibility 10 miles    
Events Rain    
T = Trace of Precipitation, MM = Missing Value Source: NWS Daily Summary

Daily Weather History Graph

Daily Weather History Graph

Search for Another Location

Airport or City:

Trip Planner

Search our weather history database for the weather conditions in past years. The results will help you decide how hot, cold, wet, or windy it might be!

Date:

Astronomy

Jan. 31, 2013 Rise Set
Actual Time 7:30 AM EST 6:03 PM EST
Civil Twilight 7:04 AM EST 6:29 PM EST
Nautical Twilight 6:34 AM EST 6:59 PM EST
Astronomical Twilight 6:05 AM EST 7:28 PM EST
Moon 10:47 PM EST (1/31) 9:45 AM EST (1/31)
Length of Visible Light 11h 25m
Length of Day
10h 32m
Waning Gibbous, 80% of the Moon is Illuminated
Jan 31
Waning Gibbous
Feb 3
Last Quarter
Feb 10
New
Feb 17
First Quarter
Feb 25
Full

Hourly Weather History & Observations

Time (EST) Temp. Windchill Dew Point Humidity Pressure Visibility Wind Dir Wind Speed Gust Speed Precip Events Conditions
12:51 AM 44.1 °F 35.9 °F 37.0 °F 76% 29.77 in 10.0 mi West 19.6 mph 36.8 mph 0.00 in Rain Light Rain
1:51 AM 42.1 °F 34.5 °F 33.1 °F 70% 29.82 in 10.0 mi West 15.0 mph 28.8 mph 0.00 in   Overcast
2:51 AM 39.9 °F 31.1 °F 30.0 °F 68% 29.86 in 10.0 mi WNW 17.3 mph 29.9 mph N/A   Partly Cloudy
3:51 AM 37.0 °F 26.4 °F 25.0 °F 62% 29.90 in 10.0 mi West 20.7 mph 34.5 mph N/A   Clear
4:51 AM 37.0 °F 28.9 °F 24.1 °F 59% 29.91 in 10.0 mi WNW 12.7 mph 25.3 mph N/A   Clear
5:51 AM 36.0 °F 28.0 °F 24.1 °F 62% 29.95 in 10.0 mi WNW 11.5 mph 19.6 mph N/A   Clear
6:51 AM 36.0 °F 27.5 °F 24.1 °F 62% 29.99 in 10.0 mi West 12.7 mph 20.7 mph N/A   Clear
7:51 AM 35.1 °F 27.9 °F 23.0 °F 61% 30.01 in 10.0 mi West 9.2 mph - N/A   Clear
8:51 AM 37.9 °F 30.9 °F 24.1 °F 57% 30.03 in 10.0 mi West 10.4 mph - N/A   Clear
9:51 AM 39.9 °F 30.5 °F 26.1 °F 58% 30.06 in 10.0 mi WNW 19.6 mph 26.5 mph N/A   Clear
10:51 AM 42.1 °F 34.5 °F 24.1 °F 49% 30.07 in 10.0 mi West 15.0 mph 20.7 mph N/A   Clear
11:51 AM 45.0 °F 38.2 °F 24.1 °F 44% 30.08 in 10.0 mi West 15.0 mph 25.3 mph N/A   Clear
12:51 PM 46.9 °F - 21.0 °F 36% 30.07 in 10.0 mi West 18.4 mph 29.9 mph N/A   Clear
1:51 PM 46.9 °F - 21.0 °F 36% 30.08 in 10.0 mi West 15.0 mph 29.9 mph N/A   Clear
2:51 PM 48.0 °F - 21.0 °F 34% 30.08 in 10.0 mi NW 18.4 mph 26.5 mph N/A   Clear
3:51 PM 48.0 °F - 21.0 °F 34% 30.09 in 10.0 mi WNW 17.3 mph 26.5 mph N/A   Clear
4:51 PM 48.0 °F - 21.0 °F 34% 30.09 in 10.0 mi West 13.8 mph 21.9 mph N/A   Clear
5:51 PM 45.0 °F 40.6 °F 19.9 °F 37% 30.09 in 10.0 mi WNW 8.1 mph - N/A   Clear
6:51 PM 42.1 °F 39.2 °F 21.9 °F 45% 30.12 in 10.0 mi WSW 4.6 mph - N/A   Clear
7:51 PM 41.0 °F 38.0 °F 23.0 °F 49% 30.13 in 10.0 mi WSW 4.6 mph - N/A   Clear
8:51 PM 39.9 °F 36.7 °F 24.1 °F 53% 30.14 in 10.0 mi WSW 4.6 mph - N/A   Clear
9:51 PM 37.9 °F 35.5 °F 23.0 °F 55% 30.16 in 10.0 mi WSW 3.5 mph - N/A   Clear
10:51 PM 37.0 °F 32.4 °F 24.1 °F 59% 30.16 in 10.0 mi SW 5.8 mph - N/A   Clear
11:51 PM 37.0 °F 32.4 °F 24.1 °F 59% 30.17 in 10.0 mi WSW 5.8 mph - N/A   Clear